Waarnemingen

Advertentie
Mijn weer
Falsterbo, Zweden (2616): temperatuur & dauwpunt: 21.10.2020 06:00:00 - 27.10.2020 06:00:00 (CET)Falsterbo, Zweden (2616): windsnelheid: 21.10.2020 06:00:00 - 27.10.2020 06:00:00 (CET)Falsterbo, Zweden (2616): windrichting: 21.10.2020 06:00:00 - 27.10.2020 06:00:00 (CET)Falsterbo, Zweden (2616): luchtdruk: 21.10.2020 06:00:00 - 27.10.2020 06:00:00 (CET)Falsterbo, Zweden (2616): zicht: 21.10.2020 06:00:00 - 27.10.2020 06:00:00 (CET)
Datum & Tijd tt [°C] td [°C] ff [km/u] ff [kn] dd ppp [hPa] vv [km]
27.10.2020 06:00:00 - - - - - - -
27.10.2020 05:00:00 - - - - - - -
27.10.2020 04:00:00 - - - - - - -
27.10.2020 03:00:00 - - - - - - -
27.10.2020 02:00:00 - - - - - - -
27.10.2020 01:00:00 - - - - - - -
27.10.2020 00:00:00 - - - - - - -
26.10.2020 23:00:00 - - - - - - -
26.10.2020 22:00:00 - - - - - - -
26.10.2020 21:00:00 - - - - - - -
26.10.2020 20:00:00 - - - - - - -
26.10.2020 19:00:00 11,2 10,7 32 18 ZZO 1001,1 28
26.10.2020 18:00:00 - - - - - - -
26.10.2020 17:00:00 - - - - - - -
26.10.2020 16:00:00 11,5 10,9 25 14 ZZW 1001,5 17
26.10.2020 15:00:00 - - - - - - -
26.10.2020 14:00:00 - - - - - - -
26.10.2020 13:00:00 12,4 11,0 22 12 Z 1001,8 26
26.10.2020 12:00:00 - - - - - - -
26.10.2020 11:00:00 - - - - - - -
26.10.2020 10:00:00 12,3 10,9 29 16 ZZW 1002,1 35
26.10.2020 09:00:00 - - - - - - -
26.10.2020 08:00:00 - - - - - - -
26.10.2020 07:00:00 11,4 10,5 18 10 ZZW 1001,4 21
26.10.2020 06:00:00 - - - - - - -
26.10.2020 05:00:00 - - - - - - -
26.10.2020 04:00:00 - - - - - - -
26.10.2020 03:00:00 - - - - - - -
26.10.2020 02:00:00 - - - - - - -
26.10.2020 01:00:00 - - - - - - -
26.10.2020 00:00:00 - - - - - - -
25.10.2020 23:00:00 - - - - - - -
25.10.2020 22:00:00 - - - - - - -
25.10.2020 21:00:00 - - - - - - -
25.10.2020 20:00:00 - - - - - - -
25.10.2020 19:00:00 12,6 12,1 29 16 Z 1002,6 7
25.10.2020 18:00:00 - - - - - - -
25.10.2020 17:00:00 - - - - - - -
25.10.2020 16:00:00 12,9 12,0 32 18 Z 1002,8 11
25.10.2020 15:00:00 - - - - - - -
25.10.2020 14:00:00 - - - - - - -
25.10.2020 13:00:00 13,1 11,7 40 21 Z 1003,3 28
25.10.2020 12:00:00 - - - - - - -
25.10.2020 11:00:00 - - - - - - -
25.10.2020 10:00:00 13,9 11,4 43 23 Z 1003,4 30
25.10.2020 09:00:00 - - - - - - -
25.10.2020 08:00:00 - - - - - - -
25.10.2020 07:00:00 13,2 11,3 36 19 Z 1004,3 22
25.10.2020 06:00:00 - - - - - - -
25.10.2020 05:00:00 - - - - - - -
25.10.2020 04:00:00 - - - - - - -
25.10.2020 03:00:00 - - - - - - -
25.10.2020 02:00:00 - - - - - - -
25.10.2020 01:00:00 - - - - - - -
25.10.2020 00:00:00 - - - - - - -
24.10.2020 23:00:00 - - - - - - -
24.10.2020 22:00:00 - - - - - - -
24.10.2020 21:00:00 - - - - - - -
24.10.2020 20:00:00 - - - - - - -
24.10.2020 19:00:00 11,7 9,1 22 12 ZZW 1009,2 35
24.10.2020 18:00:00 - - - - - - -
24.10.2020 17:00:00 - - - - - - -
24.10.2020 16:00:00 12,5 9,0 29 16 WZW 1009,0 40
24.10.2020 15:00:00 - - - - - - -
24.10.2020 14:00:00 - - - - - - -
24.10.2020 13:00:00 13,5 9,4 29 16 WZW 1008,3 22
24.10.2020 12:00:00 - - - - - - -
24.10.2020 11:00:00 - - - - - - -
24.10.2020 10:00:00 12,7 10,6 40 21 WZW 1007,4 24
24.10.2020 09:00:00 - - - - - - -
24.10.2020 08:00:00 - - - - - - -
24.10.2020 07:00:00 12,4 11,5 29 16 WZW 1006,3 2,8
24.10.2020 06:00:00 - - - - - - -
24.10.2020 05:00:00 - - - - - - -
24.10.2020 04:00:00 - - - - - - -
24.10.2020 03:00:00 - - - - - - -
24.10.2020 02:00:00 - - - - - - -
24.10.2020 01:00:00 - - - - - - -
24.10.2020 00:00:00 - - - - - - -
23.10.2020 23:00:00 - - - - - - -
23.10.2020 22:00:00 - - - - - - -
23.10.2020 21:00:00 - - - - - - -
23.10.2020 20:00:00 - - - - - - -
23.10.2020 19:00:00 11,9 9,6 25 14 WZW 1008,7 30
23.10.2020 18:00:00 - - - - - - -
23.10.2020 17:00:00 - - - - - - -
23.10.2020 16:00:00 12,4 9,8 29 16 WZW 1008,5 22
23.10.2020 15:00:00 - - - - - - -
23.10.2020 14:00:00 - - - - - - -
23.10.2020 13:00:00 13,2 10,2 29 16 WZW 1008,4 27
23.10.2020 12:00:00 - - - - - - -
23.10.2020 11:00:00 - - - - - - -
23.10.2020 10:00:00 12,0 10,1 29 16 WZW 1008,4 20
23.10.2020 09:00:00 - - - - - - -
23.10.2020 08:00:00 - - - - - - -
23.10.2020 07:00:00 12,1 9,5 40 21 W 1006,7 16
23.10.2020 06:00:00 - - - - - - -
23.10.2020 05:00:00 - - - - - - -
23.10.2020 04:00:00 - - - - - - -
23.10.2020 03:00:00 - - - - - - -
23.10.2020 02:00:00 - - - - - - -
23.10.2020 01:00:00 - - - - - - -
23.10.2020 00:00:00 - - - - - - -
22.10.2020 23:00:00 - - - - - - -
22.10.2020 22:00:00 - - - - - - -
22.10.2020 21:00:00 - - - - - - -
22.10.2020 20:00:00 - - - - - - -
22.10.2020 19:00:00 13,5 10,8 29 16 ZZW 1006,9 30
22.10.2020 18:00:00 - - - - - - -
22.10.2020 17:00:00 - - - - - - -
22.10.2020 16:00:00 14,2 11,0 40 21 ZW 1006,9 35
22.10.2020 15:00:00 - - - - - - -
22.10.2020 14:00:00 - - - - - - -
22.10.2020 13:00:00 14,5 11,5 40 21 ZW 1006,7 45
22.10.2020 12:00:00 - - - - - - -
22.10.2020 11:00:00 - - - - - - -
22.10.2020 10:00:00 13,8 12,2 40 21 WZW 1006,3 35
22.10.2020 09:00:00 - - - - - - -
22.10.2020 08:00:00 - - - - - - -
22.10.2020 07:00:00 14,2 11,7 47 25 WZW 1002,7 23
22.10.2020 06:00:00 - - - - - - -
22.10.2020 05:00:00 - - - - - - -
22.10.2020 04:00:00 - - - - - - -
22.10.2020 03:00:00 - - - - - - -
22.10.2020 02:00:00 - - - - - - -
22.10.2020 01:00:00 - - - - - - -
22.10.2020 00:00:00 - - - - - - -
21.10.2020 23:00:00 - - - - - - -
21.10.2020 22:00:00 - - - - - - -
21.10.2020 21:00:00 - - - - - - -
21.10.2020 20:00:00 - - - - - - -
21.10.2020 19:00:00 12,2 11,7 36 19 Z 1001,0 7
21.10.2020 18:00:00 - - - - - - -
21.10.2020 17:00:00 - - - - - - -
21.10.2020 16:00:00 12,3 11,8 29 16 Z 1003,0 22
21.10.2020 15:00:00 - - - - - - -
21.10.2020 14:00:00 - - - - - - -
21.10.2020 13:00:00 12,9 12,3 18 10 Z 1005,5 3,2
21.10.2020 12:00:00 - - - - - - -
21.10.2020 11:00:00 - - - - - - -
21.10.2020 10:00:00 12,9 12,0 22 12 Z 1006,7 5
21.10.2020 09:00:00 - - - - - - -
21.10.2020 08:00:00 - - - - - - -
21.10.2020 07:00:00 12,6 11,8 14 8 ZZW 1006,5 4,0
21.10.2020 06:00:00 - - - - - - -

tt = temperatuur
td = dauwpunt
ff = windsnelheid
dd = windrichting
ppp = luchtdruk
vv = zicht

Weerstations in de omgeving